User: anonymous   Login
Location: Unspecified
(0.0000°N, 0.0000°E)
Time: 05:07:00
(UTC+00:00)
Language:

Courier 1B - Orbit

View from above orbital plane
View from above orbital plane
View from above satellite
View from above satellite

Ground track
Ground track

The orbit data is extracted from the following two-line orbital elements,

1    58U 60013A   16180.63971397 +.00000111 +00000-0 +38171-4 0  9991
2    58 028.3277 249.8205 0165046 306.2837 052.2564 13.46303488743092
Epoch (UTC): 28 June 2016 15:21:11
Eccentricity: 0.0165046
inclination: 28.3277°
perigee height: 963 km
apogee height: 1209 km
right ascension of ascending node: 249.8205°
argument of perigee: 306.2837°
revolutions per day: 13.46303488
mean anomaly at epoch: 52.2564°
orbit number at epoch: 74309

The dashed part of the orbit path shows where the satellite is in the earth's shadow,  

DLR